Index of /20260424/WXO-DD/model_gdps/15km/12/000
Name Last modified Size Description
Parent Directory -
20260424T12Z_MSC_GDPS_AbsoluteVorticity_IsbL-0200_LatLon0.15_PT000H.grib2 2026-04-24 15:55 1.2M
20260424T12Z_MSC_GDPS_AbsoluteVorticity_IsbL-0250_LatLon0.15_PT000H.grib2 2026-04-24 15:55 1.3M
20260424T12Z_MSC_GDPS_AbsoluteVorticity_IsbL-0500_LatLon0.15_PT000H.grib2 2026-04-24 15:55 1.5M
20260424T12Z_MSC_GDPS_AbsoluteVorticity_IsbL-0700_LatLon0.15_PT000H.grib2 2026-04-24 15:55 1.6M
20260424T12Z_MSC_GDPS_AbsoluteVorticity_IsbL-0850_LatLon0.15_PT000H.grib2 2026-04-24 15:55 1.6M
20260424T12Z_MSC_GDPS_AirTemp_AGL-120m_LatLon0.15_PT000H.grib2 2026-04-24 15:55 783K
20260424T12Z_MSC_GDPS_AirTemp_AGL-2m_LatLon0.15_PT000H.grib2 2026-04-24 15:55 1.0M
20260424T12Z_MSC_GDPS_AirTemp_AGL-40m_LatLon0.15_PT000H.grib2 2026-04-24 15:55 800K
20260424T12Z_MSC_GDPS_AirTemp_AGL-80m_LatLon0.15_PT000H.grib2 2026-04-24 15:55 790K
20260424T12Z_MSC_GDPS_AirTemp_IsbL-0001_LatLon0.15_PT000H.grib2 2026-04-24 15:55 648K
20260424T12Z_MSC_GDPS_AirTemp_IsbL-0005_LatLon0.15_PT000H.grib2 2026-04-24 15:55 688K
20260424T12Z_MSC_GDPS_AirTemp_IsbL-0010_LatLon0.15_PT000H.grib2 2026-04-24 15:55 761K
20260424T12Z_MSC_GDPS_AirTemp_IsbL-0020_LatLon0.15_PT000H.grib2 2026-04-24 15:55 702K
20260424T12Z_MSC_GDPS_AirTemp_IsbL-0030_LatLon0.15_PT000H.grib2 2026-04-24 15:55 753K
20260424T12Z_MSC_GDPS_AirTemp_IsbL-0050_LatLon0.15_PT000H.grib2 2026-04-24 15:55 820K
20260424T12Z_MSC_GDPS_AirTemp_IsbL-0100_LatLon0.15_PT000H.grib2 2026-04-24 15:55 948K
20260424T12Z_MSC_GDPS_AirTemp_IsbL-0150_LatLon0.15_PT000H.grib2 2026-04-24 15:55 1.0M
20260424T12Z_MSC_GDPS_AirTemp_IsbL-0175_LatLon0.15_PT000H.grib2 2026-04-24 15:55 1.0M
20260424T12Z_MSC_GDPS_AirTemp_IsbL-0200_LatLon0.15_PT000H.grib2 2026-04-24 15:55 1.0M
20260424T12Z_MSC_GDPS_AirTemp_IsbL-0225_LatLon0.15_PT000H.grib2 2026-04-24 15:55 1.0M
20260424T12Z_MSC_GDPS_AirTemp_IsbL-0250_LatLon0.15_PT000H.grib2 2026-04-24 15:55 1.0M
20260424T12Z_MSC_GDPS_AirTemp_IsbL-0275_LatLon0.15_PT000H.grib2 2026-04-24 15:55 1.0M
20260424T12Z_MSC_GDPS_AirTemp_IsbL-0300_LatLon0.15_PT000H.grib2 2026-04-24 15:55 1.0M
20260424T12Z_MSC_GDPS_AirTemp_IsbL-0350_LatLon0.15_PT000H.grib2 2026-04-24 15:55 947K
20260424T12Z_MSC_GDPS_AirTemp_IsbL-0400_LatLon0.15_PT000H.grib2 2026-04-24 15:55 960K
20260424T12Z_MSC_GDPS_AirTemp_IsbL-0450_LatLon0.15_PT000H.grib2 2026-04-24 15:55 1.0M
20260424T12Z_MSC_GDPS_AirTemp_IsbL-0500_LatLon0.15_PT000H.grib2 2026-04-24 15:55 1.0M
20260424T12Z_MSC_GDPS_AirTemp_IsbL-0550_LatLon0.15_PT000H.grib2 2026-04-24 15:55 817K
20260424T12Z_MSC_GDPS_AirTemp_IsbL-0600_LatLon0.15_PT000H.grib2 2026-04-24 15:55 908K
20260424T12Z_MSC_GDPS_AirTemp_IsbL-0650_LatLon0.15_PT000H.grib2 2026-04-24 15:55 932K
20260424T12Z_MSC_GDPS_AirTemp_IsbL-0700_LatLon0.15_PT000H.grib2 2026-04-24 15:55 962K
20260424T12Z_MSC_GDPS_AirTemp_IsbL-0750_LatLon0.15_PT000H.grib2 2026-04-24 15:55 1.0M
20260424T12Z_MSC_GDPS_AirTemp_IsbL-0800_LatLon0.15_PT000H.grib2 2026-04-24 15:55 1.1M
20260424T12Z_MSC_GDPS_AirTemp_IsbL-0850_LatLon0.15_PT000H.grib2 2026-04-24 15:55 1.1M
20260424T12Z_MSC_GDPS_AirTemp_IsbL-0875_LatLon0.15_PT000H.grib2 2026-04-24 15:55 1.2M
20260424T12Z_MSC_GDPS_AirTemp_IsbL-0900_LatLon0.15_PT000H.grib2 2026-04-24 15:55 1.1M
20260424T12Z_MSC_GDPS_AirTemp_IsbL-0925_LatLon0.15_PT000H.grib2 2026-04-24 15:55 1.1M
20260424T12Z_MSC_GDPS_AirTemp_IsbL-0950_LatLon0.15_PT000H.grib2 2026-04-24 15:55 1.1M
20260424T12Z_MSC_GDPS_AirTemp_IsbL-0970_LatLon0.15_PT000H.grib2 2026-04-24 15:55 1.1M
20260424T12Z_MSC_GDPS_AirTemp_IsbL-0985_LatLon0.15_PT000H.grib2 2026-04-24 15:55 1.1M
20260424T12Z_MSC_GDPS_AirTemp_IsbL-1000_LatLon0.15_PT000H.grib2 2026-04-24 15:55 1.1M
20260424T12Z_MSC_GDPS_AirTemp_IsbL-1015_LatLon0.15_PT000H.grib2 2026-04-24 15:55 1.1M
20260424T12Z_MSC_GDPS_Albedo_Sfc_LatLon0.15_PT000H.grib2 2026-04-24 15:55 246K
20260424T12Z_MSC_GDPS_CAPE_Sfc_LatLon0.15_PT000H.grib2 2026-04-24 15:55 3.9M
20260424T12Z_MSC_GDPS_CIN_Sfc_LatLon0.15_PT000H.grib2 2026-04-24 15:55 2.9M
20260424T12Z_MSC_GDPS_CloudWater_EAtm_LatLon0.15_PT000H.grib2 2026-04-24 15:55 524K
20260424T12Z_MSC_GDPS_ConvectivePrecip-Accum_Sfc_LatLon0.15_PT000H.grib2 2026-04-24 15:55 205
20260424T12Z_MSC_GDPS_DewPointDepression_AGL-2m_LatLon0.15_PT000H.grib2 2026-04-24 15:55 806K
20260424T12Z_MSC_GDPS_DewPointDepression_IsbL-0010_LatLon0.15_PT000H.grib2 2026-04-24 15:55 31K
20260424T12Z_MSC_GDPS_DewPointDepression_IsbL-0020_LatLon0.15_PT000H.grib2 2026-04-24 15:55 75K
20260424T12Z_MSC_GDPS_DewPointDepression_IsbL-0030_LatLon0.15_PT000H.grib2 2026-04-24 15:55 78K
20260424T12Z_MSC_GDPS_DewPointDepression_IsbL-0050_LatLon0.15_PT000H.grib2 2026-04-24 15:55 362K
20260424T12Z_MSC_GDPS_DewPointDepression_IsbL-0100_LatLon0.15_PT000H.grib2 2026-04-24 15:55 402K
20260424T12Z_MSC_GDPS_DewPointDepression_IsbL-0150_LatLon0.15_PT000H.grib2 2026-04-24 15:55 485K
20260424T12Z_MSC_GDPS_DewPointDepression_IsbL-0175_LatLon0.15_PT000H.grib2 2026-04-24 15:55 582K
20260424T12Z_MSC_GDPS_DewPointDepression_IsbL-0200_LatLon0.15_PT000H.grib2 2026-04-24 15:55 677K
20260424T12Z_MSC_GDPS_DewPointDepression_IsbL-0225_LatLon0.15_PT000H.grib2 2026-04-24 15:55 792K
20260424T12Z_MSC_GDPS_DewPointDepression_IsbL-0250_LatLon0.15_PT000H.grib2 2026-04-24 15:55 887K
20260424T12Z_MSC_GDPS_DewPointDepression_IsbL-0275_LatLon0.15_PT000H.grib2 2026-04-24 15:55 911K
20260424T12Z_MSC_GDPS_DewPointDepression_IsbL-0300_LatLon0.15_PT000H.grib2 2026-04-24 15:55 957K
20260424T12Z_MSC_GDPS_DewPointDepression_IsbL-0350_LatLon0.15_PT000H.grib2 2026-04-24 15:55 1.0M
20260424T12Z_MSC_GDPS_DewPointDepression_IsbL-0400_LatLon0.15_PT000H.grib2 2026-04-24 15:55 1.0M
20260424T12Z_MSC_GDPS_DewPointDepression_IsbL-0450_LatLon0.15_PT000H.grib2 2026-04-24 15:55 1.0M
20260424T12Z_MSC_GDPS_DewPointDepression_IsbL-0500_LatLon0.15_PT000H.grib2 2026-04-24 15:55 1.0M
20260424T12Z_MSC_GDPS_DewPointDepression_IsbL-0550_LatLon0.15_PT000H.grib2 2026-04-24 15:55 1.0M
20260424T12Z_MSC_GDPS_DewPointDepression_IsbL-0600_LatLon0.15_PT000H.grib2 2026-04-24 15:55 1.0M
20260424T12Z_MSC_GDPS_DewPointDepression_IsbL-0650_LatLon0.15_PT000H.grib2 2026-04-24 15:55 1.0M
20260424T12Z_MSC_GDPS_DewPointDepression_IsbL-0700_LatLon0.15_PT000H.grib2 2026-04-24 15:55 1.1M
20260424T12Z_MSC_GDPS_DewPointDepression_IsbL-0750_LatLon0.15_PT000H.grib2 2026-04-24 15:55 1.1M
20260424T12Z_MSC_GDPS_DewPointDepression_IsbL-0800_LatLon0.15_PT000H.grib2 2026-04-24 15:55 1.1M
20260424T12Z_MSC_GDPS_DewPointDepression_IsbL-0850_LatLon0.15_PT000H.grib2 2026-04-24 15:55 1.1M
20260424T12Z_MSC_GDPS_DewPointDepression_IsbL-0875_LatLon0.15_PT000H.grib2 2026-04-24 15:55 1.1M
20260424T12Z_MSC_GDPS_DewPointDepression_IsbL-0900_LatLon0.15_PT000H.grib2 2026-04-24 15:55 1.0M
20260424T12Z_MSC_GDPS_DewPointDepression_IsbL-0925_LatLon0.15_PT000H.grib2 2026-04-24 15:55 1.0M
20260424T12Z_MSC_GDPS_DewPointDepression_IsbL-0950_LatLon0.15_PT000H.grib2 2026-04-24 15:55 1.0M
20260424T12Z_MSC_GDPS_DewPointDepression_IsbL-0970_LatLon0.15_PT000H.grib2 2026-04-24 15:55 1.0M
20260424T12Z_MSC_GDPS_DewPointDepression_IsbL-0985_LatLon0.15_PT000H.grib2 2026-04-24 15:55 1.0M
20260424T12Z_MSC_GDPS_DewPointDepression_IsbL-1000_LatLon0.15_PT000H.grib2 2026-04-24 15:55 965K
20260424T12Z_MSC_GDPS_DewPointDepression_IsbL-1015_LatLon0.15_PT000H.grib2 2026-04-24 15:55 938K
20260424T12Z_MSC_GDPS_DewPoint_AGL-2m_LatLon0.15_PT000H.grib2 2026-04-24 15:55 635K
20260424T12Z_MSC_GDPS_DownwardLongwaveRadiationFlux-Accum_Sfc_LatLon0.15_PT000H.grib2 2026-04-24 15:55 205
20260424T12Z_MSC_GDPS_DownwardShortwaveRadiationFlux-Accum_NTAtm_LatLon0.15_PT000H.grib2 2026-04-24 15:55 205
20260424T12Z_MSC_GDPS_DownwardShortwaveRadiationFlux-Accum_Sfc_LatLon0.15_PT000H.grib2 2026-04-24 15:55 205
20260424T12Z_MSC_GDPS_GeopotentialHeight_IsbL-0001_LatLon0.15_PT000H.grib2 2026-04-24 15:55 419K
20260424T12Z_MSC_GDPS_GeopotentialHeight_IsbL-0005_LatLon0.15_PT000H.grib2 2026-04-24 15:55 516K
20260424T12Z_MSC_GDPS_GeopotentialHeight_IsbL-0010_LatLon0.15_PT000H.grib2 2026-04-24 15:55 446K
20260424T12Z_MSC_GDPS_GeopotentialHeight_IsbL-0020_LatLon0.15_PT000H.grib2 2026-04-24 15:55 595K
20260424T12Z_MSC_GDPS_GeopotentialHeight_IsbL-0030_LatLon0.15_PT000H.grib2 2026-04-24 15:55 596K
20260424T12Z_MSC_GDPS_GeopotentialHeight_IsbL-0050_LatLon0.15_PT000H.grib2 2026-04-24 15:55 598K
20260424T12Z_MSC_GDPS_GeopotentialHeight_IsbL-0100_LatLon0.15_PT000H.grib2 2026-04-24 15:55 629K
20260424T12Z_MSC_GDPS_GeopotentialHeight_IsbL-0150_LatLon0.15_PT000H.grib2 2026-04-24 15:55 645K
20260424T12Z_MSC_GDPS_GeopotentialHeight_IsbL-0175_LatLon0.15_PT000H.grib2 2026-04-24 15:55 650K
20260424T12Z_MSC_GDPS_GeopotentialHeight_IsbL-0200_LatLon0.15_PT000H.grib2 2026-04-24 15:55 657K
20260424T12Z_MSC_GDPS_GeopotentialHeight_IsbL-0225_LatLon0.15_PT000H.grib2 2026-04-24 15:55 660K
20260424T12Z_MSC_GDPS_GeopotentialHeight_IsbL-0250_LatLon0.15_PT000H.grib2 2026-04-24 15:55 664K
20260424T12Z_MSC_GDPS_GeopotentialHeight_IsbL-0275_LatLon0.15_PT000H.grib2 2026-04-24 15:55 662K
20260424T12Z_MSC_GDPS_GeopotentialHeight_IsbL-0300_LatLon0.15_PT000H.grib2 2026-04-24 15:55 662K
20260424T12Z_MSC_GDPS_GeopotentialHeight_IsbL-0350_LatLon0.15_PT000H.grib2 2026-04-24 15:55 655K
20260424T12Z_MSC_GDPS_GeopotentialHeight_IsbL-0400_LatLon0.15_PT000H.grib2 2026-04-24 15:55 646K
20260424T12Z_MSC_GDPS_GeopotentialHeight_IsbL-0450_LatLon0.15_PT000H.grib2 2026-04-24 15:55 635K
20260424T12Z_MSC_GDPS_GeopotentialHeight_IsbL-0500_LatLon0.15_PT000H.grib2 2026-04-24 15:55 556K
20260424T12Z_MSC_GDPS_GeopotentialHeight_IsbL-0550_LatLon0.15_PT000H.grib2 2026-04-24 15:55 546K
20260424T12Z_MSC_GDPS_GeopotentialHeight_IsbL-0600_LatLon0.15_PT000H.grib2 2026-04-24 15:55 543K
20260424T12Z_MSC_GDPS_GeopotentialHeight_IsbL-0650_LatLon0.15_PT000H.grib2 2026-04-24 15:55 539K
20260424T12Z_MSC_GDPS_GeopotentialHeight_IsbL-0700_LatLon0.15_PT000H.grib2 2026-04-24 15:55 715K
20260424T12Z_MSC_GDPS_GeopotentialHeight_IsbL-0750_LatLon0.15_PT000H.grib2 2026-04-24 15:55 718K
20260424T12Z_MSC_GDPS_GeopotentialHeight_IsbL-0800_LatLon0.15_PT000H.grib2 2026-04-24 15:55 724K
20260424T12Z_MSC_GDPS_GeopotentialHeight_IsbL-0850_LatLon0.15_PT000H.grib2 2026-04-24 15:55 730K
20260424T12Z_MSC_GDPS_GeopotentialHeight_IsbL-0875_LatLon0.15_PT000H.grib2 2026-04-24 15:55 727K
20260424T12Z_MSC_GDPS_GeopotentialHeight_IsbL-0900_LatLon0.15_PT000H.grib2 2026-04-24 15:55 730K
20260424T12Z_MSC_GDPS_GeopotentialHeight_IsbL-0925_LatLon0.15_PT000H.grib2 2026-04-24 15:55 737K
20260424T12Z_MSC_GDPS_GeopotentialHeight_IsbL-0950_LatLon0.15_PT000H.grib2 2026-04-24 15:55 745K
20260424T12Z_MSC_GDPS_GeopotentialHeight_IsbL-0970_LatLon0.15_PT000H.grib2 2026-04-24 15:55 756K
20260424T12Z_MSC_GDPS_GeopotentialHeight_IsbL-0985_LatLon0.15_PT000H.grib2 2026-04-24 15:55 771K
20260424T12Z_MSC_GDPS_GeopotentialHeight_IsbL-1000_LatLon0.15_PT000H.grib2 2026-04-24 15:55 604K
20260424T12Z_MSC_GDPS_GeopotentialHeight_IsbL-1015_LatLon0.15_PT000H.grib2 2026-04-24 15:55 622K
20260424T12Z_MSC_GDPS_GeopotentialHeight_Sfc_LatLon0.15_PT000H.grib2 2026-04-24 15:55 707K
20260424T12Z_MSC_GDPS_Humidex_Sfc_LatLon0.15_PT000H.grib2 2026-04-24 15:55 5.4M
20260424T12Z_MSC_GDPS_KIndex_Sfc_LatLon0.15_PT000H.grib2 2026-04-24 15:55 6.3M
20260424T12Z_MSC_GDPS_LandWaterProportion_Sfc_LatLon0.15_PT000H.grib2 2026-04-24 15:55 239K
20260424T12Z_MSC_GDPS_LatentHeatNetFlux_Sfc_LatLon0.15_PT000H.grib2 2026-04-24 15:55 589K
20260424T12Z_MSC_GDPS_LiftedIndex-MU-VT_IsbL-0500_LatLon0.15_PT000H.grib2 2026-04-24 15:55 5.4M
20260424T12Z_MSC_GDPS_NetLongwaveRadiationFlux-Accum_Sfc_LatLon0.15_PT000H.grib2 2026-04-24 15:55 205
20260424T12Z_MSC_GDPS_NetShortwaveRadiationFlux-Accum_Sfc_LatLon0.15_PT000H.grib2 2026-04-24 15:55 205
20260424T12Z_MSC_GDPS_O3MixingRatio_LatLon0.15_PT000H.grib2 2026-04-24 16:48 2.1M
20260424T12Z_MSC_GDPS_O3_EAtm_LatLon0.15_PT000H.grib2 2026-04-24 16:48 2.5M
20260424T12Z_MSC_GDPS_PlanetaryBoundaryLayerHeight_Sfc_LatLon0.15_PT000H.grib2 2026-04-24 15:55 2.4M
20260424T12Z_MSC_GDPS_PrecipType-Instant_Sfc_LatLon0.15_PT000H.grib2 2026-04-24 15:55 181
20260424T12Z_MSC_GDPS_Pressure_MSL_LatLon0.15_PT000H.grib2 2026-04-24 15:55 825K
20260424T12Z_MSC_GDPS_Pressure_PVU-1.5_LatLon0.15_PT000H.grib2 2026-04-24 15:55 5.8M
20260424T12Z_MSC_GDPS_Pressure_PVU-1_LatLon0.15_PT000H.grib2 2026-04-24 15:55 6.0M
20260424T12Z_MSC_GDPS_Pressure_PVU-2_LatLon0.15_PT000H.grib2 2026-04-24 15:55 6.0M
20260424T12Z_MSC_GDPS_Pressure_Sfc_LatLon0.15_PT000H.grib2 2026-04-24 15:55 1.1M
20260424T12Z_MSC_GDPS_RadiativeTemp_Sfc_LatLon0.15_PT000H.grib2 2026-04-24 15:55 479K
20260424T12Z_MSC_GDPS_RelativeHumidity_AGL-2m_LatLon0.15_PT000H.grib2 2026-04-24 15:55 1.1M
20260424T12Z_MSC_GDPS_RelativeHumidity_IsbL-0010_LatLon0.15_PT000H.grib2 2026-04-24 15:55 280K
20260424T12Z_MSC_GDPS_RelativeHumidity_IsbL-0020_LatLon0.15_PT000H.grib2 2026-04-24 15:55 297K
20260424T12Z_MSC_GDPS_RelativeHumidity_IsbL-0030_LatLon0.15_PT000H.grib2 2026-04-24 15:55 435K
20260424T12Z_MSC_GDPS_RelativeHumidity_IsbL-0050_LatLon0.15_PT000H.grib2 2026-04-24 15:55 423K
20260424T12Z_MSC_GDPS_RelativeHumidity_IsbL-0100_LatLon0.15_PT000H.grib2 2026-04-24 15:55 513K
20260424T12Z_MSC_GDPS_RelativeHumidity_IsbL-0150_LatLon0.15_PT000H.grib2 2026-04-24 15:55 658K
20260424T12Z_MSC_GDPS_RelativeHumidity_IsbL-0175_LatLon0.15_PT000H.grib2 2026-04-24 15:55 786K
20260424T12Z_MSC_GDPS_RelativeHumidity_IsbL-0200_LatLon0.15_PT000H.grib2 2026-04-24 15:55 701K
20260424T12Z_MSC_GDPS_RelativeHumidity_IsbL-0225_LatLon0.15_PT000H.grib2 2026-04-24 15:55 791K
20260424T12Z_MSC_GDPS_RelativeHumidity_IsbL-0250_LatLon0.15_PT000H.grib2 2026-04-24 15:55 873K
20260424T12Z_MSC_GDPS_RelativeHumidity_IsbL-0275_LatLon0.15_PT000H.grib2 2026-04-24 15:55 894K
20260424T12Z_MSC_GDPS_RelativeHumidity_IsbL-0300_LatLon0.15_PT000H.grib2 2026-04-24 15:55 935K
20260424T12Z_MSC_GDPS_RelativeHumidity_IsbL-0350_LatLon0.15_PT000H.grib2 2026-04-24 15:55 956K
20260424T12Z_MSC_GDPS_RelativeHumidity_IsbL-0400_LatLon0.15_PT000H.grib2 2026-04-24 15:55 1.0M
20260424T12Z_MSC_GDPS_RelativeHumidity_IsbL-0450_LatLon0.15_PT000H.grib2 2026-04-24 15:55 1.0M
20260424T12Z_MSC_GDPS_RelativeHumidity_IsbL-0500_LatLon0.15_PT000H.grib2 2026-04-24 15:55 1.0M
20260424T12Z_MSC_GDPS_RelativeHumidity_IsbL-0550_LatLon0.15_PT000H.grib2 2026-04-24 15:55 1.1M
20260424T12Z_MSC_GDPS_RelativeHumidity_IsbL-0600_LatLon0.15_PT000H.grib2 2026-04-24 15:55 1.1M
20260424T12Z_MSC_GDPS_RelativeHumidity_IsbL-0650_LatLon0.15_PT000H.grib2 2026-04-24 15:55 1.1M
20260424T12Z_MSC_GDPS_RelativeHumidity_IsbL-0700_LatLon0.15_PT000H.grib2 2026-04-24 15:55 1.1M
20260424T12Z_MSC_GDPS_RelativeHumidity_IsbL-0750_LatLon0.15_PT000H.grib2 2026-04-24 15:55 1.2M
20260424T12Z_MSC_GDPS_RelativeHumidity_IsbL-0800_LatLon0.15_PT000H.grib2 2026-04-24 15:55 1.3M
20260424T12Z_MSC_GDPS_RelativeHumidity_IsbL-0850_LatLon0.15_PT000H.grib2 2026-04-24 15:55 1.3M
20260424T12Z_MSC_GDPS_RelativeHumidity_IsbL-0875_LatLon0.15_PT000H.grib2 2026-04-24 15:55 1.3M
20260424T12Z_MSC_GDPS_RelativeHumidity_IsbL-0900_LatLon0.15_PT000H.grib2 2026-04-24 15:55 1.2M
20260424T12Z_MSC_GDPS_RelativeHumidity_IsbL-0925_LatLon0.15_PT000H.grib2 2026-04-24 15:55 1.2M
20260424T12Z_MSC_GDPS_RelativeHumidity_IsbL-0950_LatLon0.15_PT000H.grib2 2026-04-24 15:55 1.2M
20260424T12Z_MSC_GDPS_RelativeHumidity_IsbL-0970_LatLon0.15_PT000H.grib2 2026-04-24 15:55 1.2M
20260424T12Z_MSC_GDPS_RelativeHumidity_IsbL-0985_LatLon0.15_PT000H.grib2 2026-04-24 15:55 1.1M
20260424T12Z_MSC_GDPS_RelativeHumidity_IsbL-1000_LatLon0.15_PT000H.grib2 2026-04-24 15:55 1.1M
20260424T12Z_MSC_GDPS_RelativeHumidity_IsbL-1015_LatLon0.15_PT000H.grib2 2026-04-24 15:55 1.1M
20260424T12Z_MSC_GDPS_RelativeVorticity_IsbL-0200_LatLon0.15_PT000H.grib2 2026-04-24 15:55 1.5M
20260424T12Z_MSC_GDPS_RelativeVorticity_IsbL-0250_LatLon0.15_PT000H.grib2 2026-04-24 15:55 1.3M
20260424T12Z_MSC_GDPS_RelativeVorticity_IsbL-0500_LatLon0.15_PT000H.grib2 2026-04-24 15:55 1.5M
20260424T12Z_MSC_GDPS_RelativeVorticity_IsbL-0700_LatLon0.15_PT000H.grib2 2026-04-24 15:55 1.6M
20260424T12Z_MSC_GDPS_RelativeVorticity_IsbL-0850_LatLon0.15_PT000H.grib2 2026-04-24 15:55 1.6M
20260424T12Z_MSC_GDPS_Runoff-Accum_Sfc_LatLon0.15_PT000H.grib2 2026-04-24 15:55 181
20260424T12Z_MSC_GDPS_SeaIceFraction_Sfc_LatLon0.15_PT000H.grib2 2026-04-24 15:55 266K
20260424T12Z_MSC_GDPS_SeaWaterTemp_Sfc_LatLon0.15_PT000H.grib2 2026-04-24 15:55 901K
20260424T12Z_MSC_GDPS_SensibleHeatNetFlux_Sfc_LatLon0.15_PT000H.grib2 2026-04-24 15:55 671K
20260424T12Z_MSC_GDPS_ShowalterIndex_IsbL-0500_LatLon0.15_PT000H.grib2 2026-04-24 15:55 6.2M
20260424T12Z_MSC_GDPS_SnowDensity_Sfc_LatLon0.15_PT000H.grib2 2026-04-24 15:55 251K
20260424T12Z_MSC_GDPS_SnowDepth_Sfc_LatLon0.15_PT000H.grib2 2026-04-24 15:55 1.7M
20260424T12Z_MSC_GDPS_SoilTemp_DBS-0to10cm_LatLon0.15_PT000H.grib2 2026-04-24 15:55 490K
20260424T12Z_MSC_GDPS_SoilTemp_Sfc_LatLon0.15_PT000H.grib2 2026-04-24 15:55 553K
20260424T12Z_MSC_GDPS_SoilVolumetricIceContent_Sfc_LatLon0.15_PT000H.grib2 2026-04-24 15:55 216K
20260424T12Z_MSC_GDPS_SoilVolumetricWaterContent_DBS-0to10cm_LatLon0.15_PT000H.grib2 2026-04-24 15:55 498K
20260424T12Z_MSC_GDPS_SoilVolumetricWaterContent_DBS-0to1cm_LatLon0.15_PT000H.grib2 2026-04-24 15:55 549K
20260424T12Z_MSC_GDPS_SpecificHumidity_AGL-120m_LatLon0.15_PT000H.grib2 2026-04-24 15:55 1.1M
20260424T12Z_MSC_GDPS_SpecificHumidity_AGL-2m_LatLon0.15_PT000H.grib2 2026-04-24 15:55 1.3M
20260424T12Z_MSC_GDPS_SpecificHumidity_AGL-40m_LatLon0.15_PT000H.grib2 2026-04-24 15:55 1.1M
20260424T12Z_MSC_GDPS_SpecificHumidity_AGL-80m_LatLon0.15_PT000H.grib2 2026-04-24 15:55 1.1M
20260424T12Z_MSC_GDPS_SpecificHumidity_IsbL-0001_LatLon0.15_PT000H.grib2 2026-04-24 15:55 1.0M
20260424T12Z_MSC_GDPS_SpecificHumidity_IsbL-0005_LatLon0.15_PT000H.grib2 2026-04-24 15:55 1.3M
20260424T12Z_MSC_GDPS_SpecificHumidity_IsbL-0010_LatLon0.15_PT000H.grib2 2026-04-24 15:55 1.4M
20260424T12Z_MSC_GDPS_SpecificHumidity_IsbL-0020_LatLon0.15_PT000H.grib2 2026-04-24 15:55 1.4M
20260424T12Z_MSC_GDPS_SpecificHumidity_IsbL-0030_LatLon0.15_PT000H.grib2 2026-04-24 15:55 1.4M
20260424T12Z_MSC_GDPS_SpecificHumidity_IsbL-0050_LatLon0.15_PT000H.grib2 2026-04-24 15:55 1.8M
20260424T12Z_MSC_GDPS_SpecificHumidity_IsbL-0100_LatLon0.15_PT000H.grib2 2026-04-24 15:55 1.4M
20260424T12Z_MSC_GDPS_SpecificHumidity_IsbL-0150_LatLon0.15_PT000H.grib2 2026-04-24 15:55 1.0M
20260424T12Z_MSC_GDPS_SpecificHumidity_IsbL-0175_LatLon0.15_PT000H.grib2 2026-04-24 15:55 1.0M
20260424T12Z_MSC_GDPS_SpecificHumidity_IsbL-0200_LatLon0.15_PT000H.grib2 2026-04-24 15:55 1.3M
20260424T12Z_MSC_GDPS_SpecificHumidity_IsbL-0225_LatLon0.15_PT000H.grib2 2026-04-24 15:55 1.3M
20260424T12Z_MSC_GDPS_SpecificHumidity_IsbL-0250_LatLon0.15_PT000H.grib2 2026-04-24 15:55 1.4M
20260424T12Z_MSC_GDPS_SpecificHumidity_IsbL-0275_LatLon0.15_PT000H.grib2 2026-04-24 15:55 1.3M
20260424T12Z_MSC_GDPS_SpecificHumidity_IsbL-0300_LatLon0.15_PT000H.grib2 2026-04-24 15:55 1.5M
20260424T12Z_MSC_GDPS_SpecificHumidity_IsbL-0350_LatLon0.15_PT000H.grib2 2026-04-24 15:55 1.2M
20260424T12Z_MSC_GDPS_SpecificHumidity_IsbL-0400_LatLon0.15_PT000H.grib2 2026-04-24 15:55 1.5M
20260424T12Z_MSC_GDPS_SpecificHumidity_IsbL-0450_LatLon0.15_PT000H.grib2 2026-04-24 15:55 1.6M
20260424T12Z_MSC_GDPS_SpecificHumidity_IsbL-0500_LatLon0.15_PT000H.grib2 2026-04-24 15:55 1.4M
20260424T12Z_MSC_GDPS_SpecificHumidity_IsbL-0550_LatLon0.15_PT000H.grib2 2026-04-24 15:55 1.6M
20260424T12Z_MSC_GDPS_SpecificHumidity_IsbL-0600_LatLon0.15_PT000H.grib2 2026-04-24 15:55 1.7M
20260424T12Z_MSC_GDPS_SpecificHumidity_IsbL-0650_LatLon0.15_PT000H.grib2 2026-04-24 15:55 1.5M
20260424T12Z_MSC_GDPS_SpecificHumidity_IsbL-0700_LatLon0.15_PT000H.grib2 2026-04-24 15:55 1.6M
20260424T12Z_MSC_GDPS_SpecificHumidity_IsbL-0750_LatLon0.15_PT000H.grib2 2026-04-24 15:55 1.7M
20260424T12Z_MSC_GDPS_SpecificHumidity_IsbL-0800_LatLon0.15_PT000H.grib2 2026-04-24 15:55 1.8M
20260424T12Z_MSC_GDPS_SpecificHumidity_IsbL-0850_LatLon0.15_PT000H.grib2 2026-04-24 15:55 1.9M
20260424T12Z_MSC_GDPS_SpecificHumidity_IsbL-0875_LatLon0.15_PT000H.grib2 2026-04-24 15:55 1.6M
20260424T12Z_MSC_GDPS_SpecificHumidity_IsbL-0900_LatLon0.15_PT000H.grib2 2026-04-24 15:55 1.6M
20260424T12Z_MSC_GDPS_SpecificHumidity_IsbL-0925_LatLon0.15_PT000H.grib2 2026-04-24 15:55 1.6M
20260424T12Z_MSC_GDPS_SpecificHumidity_IsbL-0950_LatLon0.15_PT000H.grib2 2026-04-24 15:55 1.5M
20260424T12Z_MSC_GDPS_SpecificHumidity_IsbL-0970_LatLon0.15_PT000H.grib2 2026-04-24 15:55 1.5M
20260424T12Z_MSC_GDPS_SpecificHumidity_IsbL-0985_LatLon0.15_PT000H.grib2 2026-04-24 15:55 1.5M
20260424T12Z_MSC_GDPS_SpecificHumidity_IsbL-1000_LatLon0.15_PT000H.grib2 2026-04-24 15:55 1.5M
20260424T12Z_MSC_GDPS_SpecificHumidity_IsbL-1015_LatLon0.15_PT000H.grib2 2026-04-24 15:55 1.5M
20260424T12Z_MSC_GDPS_SpecificHumidity_Sfc_LatLon0.15_PT000H.grib2 2026-04-24 15:55 656K
20260424T12Z_MSC_GDPS_Thickness_IsbL-0850to0700_LatLon0.15_PT000H.grib2 2026-04-24 15:55 472K
20260424T12Z_MSC_GDPS_Thickness_IsbL-1000to0500_LatLon0.15_PT000H.grib2 2026-04-24 15:55 373K
20260424T12Z_MSC_GDPS_Thickness_IsbL-1000to0850_LatLon0.15_PT000H.grib2 2026-04-24 15:55 489K
20260424T12Z_MSC_GDPS_TotalCloudCover_Sfc_LatLon0.15_PT000H.grib2 2026-04-24 15:55 784K
20260424T12Z_MSC_GDPS_TotalTotalsIndex_Sfc_LatLon0.15_PT000H.grib2 2026-04-24 15:55 6.2M
20260424T12Z_MSC_GDPS_UVIndex-ClearSky_Sfc_LatLon0.15_PT000H.grib2 2026-04-24 16:48 1.0M
20260424T12Z_MSC_GDPS_UVIndex_Sfc_LatLon0.15_PT000H.grib2 2026-04-24 16:48 1.4M
20260424T12Z_MSC_GDPS_UpwardLongwaveRadiationFlux_NTAtm_LatLon0.15_PT000H.grib2 2026-04-24 15:55 904K
20260424T12Z_MSC_GDPS_VerticalVelocity_IsbL-0200_LatLon0.15_PT000H.grib2 2026-04-24 15:55 1.1M
20260424T12Z_MSC_GDPS_VerticalVelocity_IsbL-0250_LatLon0.15_PT000H.grib2 2026-04-24 15:55 1.3M
20260424T12Z_MSC_GDPS_VerticalVelocity_IsbL-0500_LatLon0.15_PT000H.grib2 2026-04-24 15:55 1.0M
20260424T12Z_MSC_GDPS_VerticalVelocity_IsbL-0600_LatLon0.15_PT000H.grib2 2026-04-24 15:55 1.1M
20260424T12Z_MSC_GDPS_VerticalVelocity_IsbL-0700_LatLon0.15_PT000H.grib2 2026-04-24 15:55 1.2M
20260424T12Z_MSC_GDPS_VerticalVelocity_IsbL-0850_LatLon0.15_PT000H.grib2 2026-04-24 15:55 1.4M
20260424T12Z_MSC_GDPS_WindChill_Sfc_LatLon0.15_PT000H.grib2 2026-04-24 15:55 5.4M
20260424T12Z_MSC_GDPS_WindDir_AGL-10m_LatLon0.15_PT000H.grib2 2026-04-24 15:55 1.4M
20260424T12Z_MSC_GDPS_WindDir_AGL-120m_LatLon0.15_PT000H.grib2 2026-04-24 15:55 1.3M
20260424T12Z_MSC_GDPS_WindDir_AGL-40m_LatLon0.15_PT000H.grib2 2026-04-24 15:55 1.4M
20260424T12Z_MSC_GDPS_WindDir_AGL-80m_LatLon0.15_PT000H.grib2 2026-04-24 15:55 1.4M
20260424T12Z_MSC_GDPS_WindDir_IsbL-0001_LatLon0.15_PT000H.grib2 2026-04-24 15:55 646K
20260424T12Z_MSC_GDPS_WindDir_IsbL-0005_LatLon0.15_PT000H.grib2 2026-04-24 15:55 825K
20260424T12Z_MSC_GDPS_WindDir_IsbL-0010_LatLon0.15_PT000H.grib2 2026-04-24 15:55 871K
20260424T12Z_MSC_GDPS_WindDir_IsbL-0020_LatLon0.15_PT000H.grib2 2026-04-24 15:55 960K
20260424T12Z_MSC_GDPS_WindDir_IsbL-0030_LatLon0.15_PT000H.grib2 2026-04-24 15:55 936K
20260424T12Z_MSC_GDPS_WindDir_IsbL-0050_LatLon0.15_PT000H.grib2 2026-04-24 15:55 1.0M
20260424T12Z_MSC_GDPS_WindDir_IsbL-0100_LatLon0.15_PT000H.grib2 2026-04-24 15:55 1.0M
20260424T12Z_MSC_GDPS_WindDir_IsbL-0150_LatLon0.15_PT000H.grib2 2026-04-24 15:55 1.0M
20260424T12Z_MSC_GDPS_WindDir_IsbL-0175_LatLon0.15_PT000H.grib2 2026-04-24 15:55 1.1M
20260424T12Z_MSC_GDPS_WindDir_IsbL-0200_LatLon0.15_PT000H.grib2 2026-04-24 15:55 1.1M
20260424T12Z_MSC_GDPS_WindDir_IsbL-0225_LatLon0.15_PT000H.grib2 2026-04-24 15:55 1.1M
20260424T12Z_MSC_GDPS_WindDir_IsbL-0250_LatLon0.15_PT000H.grib2 2026-04-24 15:55 1.1M
20260424T12Z_MSC_GDPS_WindDir_IsbL-0275_LatLon0.15_PT000H.grib2 2026-04-24 15:55 1.2M
20260424T12Z_MSC_GDPS_WindDir_IsbL-0300_LatLon0.15_PT000H.grib2 2026-04-24 15:55 1.2M
20260424T12Z_MSC_GDPS_WindDir_IsbL-0350_LatLon0.15_PT000H.grib2 2026-04-24 15:55 1.2M
20260424T12Z_MSC_GDPS_WindDir_IsbL-0400_LatLon0.15_PT000H.grib2 2026-04-24 15:55 1.3M
20260424T12Z_MSC_GDPS_WindDir_IsbL-0450_LatLon0.15_PT000H.grib2 2026-04-24 15:55 1.3M
20260424T12Z_MSC_GDPS_WindDir_IsbL-0500_LatLon0.15_PT000H.grib2 2026-04-24 15:55 1.4M
20260424T12Z_MSC_GDPS_WindDir_IsbL-0550_LatLon0.15_PT000H.grib2 2026-04-24 15:55 1.4M
20260424T12Z_MSC_GDPS_WindDir_IsbL-0600_LatLon0.15_PT000H.grib2 2026-04-24 15:55 1.5M
20260424T12Z_MSC_GDPS_WindDir_IsbL-0650_LatLon0.15_PT000H.grib2 2026-04-24 15:55 1.6M
20260424T12Z_MSC_GDPS_WindDir_IsbL-0700_LatLon0.15_PT000H.grib2 2026-04-24 15:55 1.6M
20260424T12Z_MSC_GDPS_WindDir_IsbL-0750_LatLon0.15_PT000H.grib2 2026-04-24 15:55 1.7M
20260424T12Z_MSC_GDPS_WindDir_IsbL-0800_LatLon0.15_PT000H.grib2 2026-04-24 15:55 1.8M
20260424T12Z_MSC_GDPS_WindDir_IsbL-0850_LatLon0.15_PT000H.grib2 2026-04-24 15:55 1.9M
20260424T12Z_MSC_GDPS_WindDir_IsbL-0875_LatLon0.15_PT000H.grib2 2026-04-24 15:55 2.0M
20260424T12Z_MSC_GDPS_WindDir_IsbL-0900_LatLon0.15_PT000H.grib2 2026-04-24 15:55 2.0M
20260424T12Z_MSC_GDPS_WindDir_IsbL-0925_LatLon0.15_PT000H.grib2 2026-04-24 15:55 2.0M
20260424T12Z_MSC_GDPS_WindDir_IsbL-0950_LatLon0.15_PT000H.grib2 2026-04-24 15:55 2.0M
20260424T12Z_MSC_GDPS_WindDir_IsbL-0970_LatLon0.15_PT000H.grib2 2026-04-24 15:55 2.0M
20260424T12Z_MSC_GDPS_WindDir_IsbL-0985_LatLon0.15_PT000H.grib2 2026-04-24 15:55 2.0M
20260424T12Z_MSC_GDPS_WindDir_IsbL-1000_LatLon0.15_PT000H.grib2 2026-04-24 15:55 2.1M
20260424T12Z_MSC_GDPS_WindDir_IsbL-1015_LatLon0.15_PT000H.grib2 2026-04-24 15:55 2.1M
20260424T12Z_MSC_GDPS_WindGust-Max_AGL-10m_LatLon0.15_PT000H.grib2 2026-04-24 15:55 2.1M
20260424T12Z_MSC_GDPS_WindGust-Min_AGL-10m_LatLon0.15_PT000H.grib2 2026-04-24 15:55 2.2M
20260424T12Z_MSC_GDPS_WindGust_AGL-10m_LatLon0.15_PT000H.grib2 2026-04-24 15:55 2.2M
20260424T12Z_MSC_GDPS_WindSpeed_AGL-10m_LatLon0.15_PT000H.grib2 2026-04-24 15:55 1.1M
20260424T12Z_MSC_GDPS_WindSpeed_AGL-120m_LatLon0.15_PT000H.grib2 2026-04-24 15:55 1.2M
20260424T12Z_MSC_GDPS_WindSpeed_AGL-40m_LatLon0.15_PT000H.grib2 2026-04-24 15:55 1.2M
20260424T12Z_MSC_GDPS_WindSpeed_AGL-80m_LatLon0.15_PT000H.grib2 2026-04-24 15:55 1.2M
20260424T12Z_MSC_GDPS_WindSpeed_IsbL-0001_LatLon0.15_PT000H.grib2 2026-04-24 15:55 645K
20260424T12Z_MSC_GDPS_WindSpeed_IsbL-0005_LatLon0.15_PT000H.grib2 2026-04-24 15:55 701K
20260424T12Z_MSC_GDPS_WindSpeed_IsbL-0010_LatLon0.15_PT000H.grib2 2026-04-24 15:55 639K
20260424T12Z_MSC_GDPS_WindSpeed_IsbL-0020_LatLon0.15_PT000H.grib2 2026-04-24 15:55 868K
20260424T12Z_MSC_GDPS_WindSpeed_IsbL-0030_LatLon0.15_PT000H.grib2 2026-04-24 15:55 949K
20260424T12Z_MSC_GDPS_WindSpeed_IsbL-0050_LatLon0.15_PT000H.grib2 2026-04-24 15:55 1.0M
20260424T12Z_MSC_GDPS_WindSpeed_IsbL-0100_LatLon0.15_PT000H.grib2 2026-04-24 15:55 1.1M
20260424T12Z_MSC_GDPS_WindSpeed_IsbL-0150_LatLon0.15_PT000H.grib2 2026-04-24 15:55 1.0M
20260424T12Z_MSC_GDPS_WindSpeed_IsbL-0175_LatLon0.15_PT000H.grib2 2026-04-24 15:55 1.0M
20260424T12Z_MSC_GDPS_WindSpeed_IsbL-0200_LatLon0.15_PT000H.grib2 2026-04-24 15:55 1.1M
20260424T12Z_MSC_GDPS_WindSpeed_IsbL-0225_LatLon0.15_PT000H.grib2 2026-04-24 15:55 1.1M
20260424T12Z_MSC_GDPS_WindSpeed_IsbL-0250_LatLon0.15_PT000H.grib2 2026-04-24 15:55 1.1M
20260424T12Z_MSC_GDPS_WindSpeed_IsbL-0275_LatLon0.15_PT000H.grib2 2026-04-24 15:55 1.1M
20260424T12Z_MSC_GDPS_WindSpeed_IsbL-0300_LatLon0.15_PT000H.grib2 2026-04-24 15:55 1.1M
20260424T12Z_MSC_GDPS_WindSpeed_IsbL-0350_LatLon0.15_PT000H.grib2 2026-04-24 15:55 1.1M
20260424T12Z_MSC_GDPS_WindSpeed_IsbL-0400_LatLon0.15_PT000H.grib2 2026-04-24 15:55 1.2M
20260424T12Z_MSC_GDPS_WindSpeed_IsbL-0450_LatLon0.15_PT000H.grib2 2026-04-24 15:55 1.2M
20260424T12Z_MSC_GDPS_WindSpeed_IsbL-0500_LatLon0.15_PT000H.grib2 2026-04-24 15:55 1.1M
20260424T12Z_MSC_GDPS_WindSpeed_IsbL-0550_LatLon0.15_PT000H.grib2 2026-04-24 15:55 1.1M
20260424T12Z_MSC_GDPS_WindSpeed_IsbL-0600_LatLon0.15_PT000H.grib2 2026-04-24 15:55 1.4M
20260424T12Z_MSC_GDPS_WindSpeed_IsbL-0650_LatLon0.15_PT000H.grib2 2026-04-24 15:55 1.5M
20260424T12Z_MSC_GDPS_WindSpeed_IsbL-0700_LatLon0.15_PT000H.grib2 2026-04-24 15:55 1.5M
20260424T12Z_MSC_GDPS_WindSpeed_IsbL-0750_LatLon0.15_PT000H.grib2 2026-04-24 15:55 1.6M
20260424T12Z_MSC_GDPS_WindSpeed_IsbL-0800_LatLon0.15_PT000H.grib2 2026-04-24 15:55 1.7M
20260424T12Z_MSC_GDPS_WindSpeed_IsbL-0850_LatLon0.15_PT000H.grib2 2026-04-24 15:55 1.7M
20260424T12Z_MSC_GDPS_WindSpeed_IsbL-0875_LatLon0.15_PT000H.grib2 2026-04-24 15:55 1.8M
20260424T12Z_MSC_GDPS_WindSpeed_IsbL-0900_LatLon0.15_PT000H.grib2 2026-04-24 15:55 1.8M
20260424T12Z_MSC_GDPS_WindSpeed_IsbL-0925_LatLon0.15_PT000H.grib2 2026-04-24 15:55 1.9M
20260424T12Z_MSC_GDPS_WindSpeed_IsbL-0950_LatLon0.15_PT000H.grib2 2026-04-24 15:55 1.9M
20260424T12Z_MSC_GDPS_WindSpeed_IsbL-0970_LatLon0.15_PT000H.grib2 2026-04-24 15:55 1.8M
20260424T12Z_MSC_GDPS_WindSpeed_IsbL-0985_LatLon0.15_PT000H.grib2 2026-04-24 15:55 1.8M
20260424T12Z_MSC_GDPS_WindSpeed_IsbL-1000_LatLon0.15_PT000H.grib2 2026-04-24 15:55 1.8M
20260424T12Z_MSC_GDPS_WindSpeed_IsbL-1015_LatLon0.15_PT000H.grib2 2026-04-24 15:55 1.8M
20260424T12Z_MSC_GDPS_WindU_AGL-10m_LatLon0.15_PT000H.grib2 2026-04-24 15:55 1.3M
20260424T12Z_MSC_GDPS_WindU_AGL-120m_LatLon0.15_PT000H.grib2 2026-04-24 15:55 1.0M
20260424T12Z_MSC_GDPS_WindU_AGL-40m_LatLon0.15_PT000H.grib2 2026-04-24 15:55 955K
20260424T12Z_MSC_GDPS_WindU_AGL-80m_LatLon0.15_PT000H.grib2 2026-04-24 15:55 1.0M
20260424T12Z_MSC_GDPS_WindU_IsbL-0001_LatLon0.15_PT000H.grib2 2026-04-24 15:55 505K
20260424T12Z_MSC_GDPS_WindU_IsbL-0005_LatLon0.15_PT000H.grib2 2026-04-24 15:55 698K
20260424T12Z_MSC_GDPS_WindU_IsbL-0010_LatLon0.15_PT000H.grib2 2026-04-24 15:55 713K
20260424T12Z_MSC_GDPS_WindU_IsbL-0020_LatLon0.15_PT000H.grib2 2026-04-24 15:55 664K
20260424T12Z_MSC_GDPS_WindU_IsbL-0030_LatLon0.15_PT000H.grib2 2026-04-24 15:55 746K
20260424T12Z_MSC_GDPS_WindU_IsbL-0050_LatLon0.15_PT000H.grib2 2026-04-24 15:55 712K
20260424T12Z_MSC_GDPS_WindU_IsbL-0100_LatLon0.15_PT000H.grib2 2026-04-24 15:55 920K
20260424T12Z_MSC_GDPS_WindU_IsbL-0150_LatLon0.15_PT000H.grib2 2026-04-24 15:55 1.0M
20260424T12Z_MSC_GDPS_WindU_IsbL-0175_LatLon0.15_PT000H.grib2 2026-04-24 15:55 822K
20260424T12Z_MSC_GDPS_WindU_IsbL-0200_LatLon0.15_PT000H.grib2 2026-04-24 15:55 855K
20260424T12Z_MSC_GDPS_WindU_IsbL-0225_LatLon0.15_PT000H.grib2 2026-04-24 15:55 925K
20260424T12Z_MSC_GDPS_WindU_IsbL-0250_LatLon0.15_PT000H.grib2 2026-04-24 15:55 872K
20260424T12Z_MSC_GDPS_WindU_IsbL-0275_LatLon0.15_PT000H.grib2 2026-04-24 15:55 900K
20260424T12Z_MSC_GDPS_WindU_IsbL-0300_LatLon0.15_PT000H.grib2 2026-04-24 15:55 895K
20260424T12Z_MSC_GDPS_WindU_IsbL-0350_LatLon0.15_PT000H.grib2 2026-04-24 15:55 908K
20260424T12Z_MSC_GDPS_WindU_IsbL-0400_LatLon0.15_PT000H.grib2 2026-04-24 15:55 910K
20260424T12Z_MSC_GDPS_WindU_IsbL-0450_LatLon0.15_PT000H.grib2 2026-04-24 15:55 912K
20260424T12Z_MSC_GDPS_WindU_IsbL-0500_LatLon0.15_PT000H.grib2 2026-04-24 15:55 1.1M
20260424T12Z_MSC_GDPS_WindU_IsbL-0550_LatLon0.15_PT000H.grib2 2026-04-24 15:55 1.1M
20260424T12Z_MSC_GDPS_WindU_IsbL-0600_LatLon0.15_PT000H.grib2 2026-04-24 15:55 1.2M
20260424T12Z_MSC_GDPS_WindU_IsbL-0650_LatLon0.15_PT000H.grib2 2026-04-24 15:55 1.2M
20260424T12Z_MSC_GDPS_WindU_IsbL-0700_LatLon0.15_PT000H.grib2 2026-04-24 15:55 1.2M
20260424T12Z_MSC_GDPS_WindU_IsbL-0750_LatLon0.15_PT000H.grib2 2026-04-24 15:55 1.3M
20260424T12Z_MSC_GDPS_WindU_IsbL-0800_LatLon0.15_PT000H.grib2 2026-04-24 15:55 1.4M
20260424T12Z_MSC_GDPS_WindU_IsbL-0850_LatLon0.15_PT000H.grib2 2026-04-24 15:55 1.4M
20260424T12Z_MSC_GDPS_WindU_IsbL-0875_LatLon0.15_PT000H.grib2 2026-04-24 15:55 1.4M
20260424T12Z_MSC_GDPS_WindU_IsbL-0900_LatLon0.15_PT000H.grib2 2026-04-24 15:55 1.5M
20260424T12Z_MSC_GDPS_WindU_IsbL-0925_LatLon0.15_PT000H.grib2 2026-04-24 15:55 1.5M
20260424T12Z_MSC_GDPS_WindU_IsbL-0950_LatLon0.15_PT000H.grib2 2026-04-24 15:55 1.4M
20260424T12Z_MSC_GDPS_WindU_IsbL-0970_LatLon0.15_PT000H.grib2 2026-04-24 15:55 1.4M
20260424T12Z_MSC_GDPS_WindU_IsbL-0985_LatLon0.15_PT000H.grib2 2026-04-24 15:55 1.4M
20260424T12Z_MSC_GDPS_WindU_IsbL-1000_LatLon0.15_PT000H.grib2 2026-04-24 15:55 1.4M
20260424T12Z_MSC_GDPS_WindU_IsbL-1015_LatLon0.15_PT000H.grib2 2026-04-24 15:55 1.4M
20260424T12Z_MSC_GDPS_WindV_AGL-10m_LatLon0.15_PT000H.grib2 2026-04-24 15:55 1.6M
20260424T12Z_MSC_GDPS_WindV_AGL-120m_LatLon0.15_PT000H.grib2 2026-04-24 15:55 964K
20260424T12Z_MSC_GDPS_WindV_AGL-40m_LatLon0.15_PT000H.grib2 2026-04-24 15:55 1.2M
20260424T12Z_MSC_GDPS_WindV_AGL-80m_LatLon0.15_PT000H.grib2 2026-04-24 15:55 963K
20260424T12Z_MSC_GDPS_WindV_IsbL-0001_LatLon0.15_PT000H.grib2 2026-04-24 15:55 708K
20260424T12Z_MSC_GDPS_WindV_IsbL-0005_LatLon0.15_PT000H.grib2 2026-04-24 15:55 860K
20260424T12Z_MSC_GDPS_WindV_IsbL-0010_LatLon0.15_PT000H.grib2 2026-04-24 15:55 892K
20260424T12Z_MSC_GDPS_WindV_IsbL-0020_LatLon0.15_PT000H.grib2 2026-04-24 15:55 939K
20260424T12Z_MSC_GDPS_WindV_IsbL-0030_LatLon0.15_PT000H.grib2 2026-04-24 15:55 856K
20260424T12Z_MSC_GDPS_WindV_IsbL-0050_LatLon0.15_PT000H.grib2 2026-04-24 15:55 916K
20260424T12Z_MSC_GDPS_WindV_IsbL-0100_LatLon0.15_PT000H.grib2 2026-04-24 15:55 1.1M
20260424T12Z_MSC_GDPS_WindV_IsbL-0150_LatLon0.15_PT000H.grib2 2026-04-24 15:55 1.0M
20260424T12Z_MSC_GDPS_WindV_IsbL-0175_LatLon0.15_PT000H.grib2 2026-04-24 15:55 823K
20260424T12Z_MSC_GDPS_WindV_IsbL-0200_LatLon0.15_PT000H.grib2 2026-04-24 15:55 855K
20260424T12Z_MSC_GDPS_WindV_IsbL-0225_LatLon0.15_PT000H.grib2 2026-04-24 15:55 866K
20260424T12Z_MSC_GDPS_WindV_IsbL-0250_LatLon0.15_PT000H.grib2 2026-04-24 15:55 867K
20260424T12Z_MSC_GDPS_WindV_IsbL-0275_LatLon0.15_PT000H.grib2 2026-04-24 15:55 895K
20260424T12Z_MSC_GDPS_WindV_IsbL-0300_LatLon0.15_PT000H.grib2 2026-04-24 15:55 884K
20260424T12Z_MSC_GDPS_WindV_IsbL-0350_LatLon0.15_PT000H.grib2 2026-04-24 15:55 896K
20260424T12Z_MSC_GDPS_WindV_IsbL-0400_LatLon0.15_PT000H.grib2 2026-04-24 15:55 898K
20260424T12Z_MSC_GDPS_WindV_IsbL-0450_LatLon0.15_PT000H.grib2 2026-04-24 15:55 1.1M
20260424T12Z_MSC_GDPS_WindV_IsbL-0500_LatLon0.15_PT000H.grib2 2026-04-24 15:55 1.1M
20260424T12Z_MSC_GDPS_WindV_IsbL-0550_LatLon0.15_PT000H.grib2 2026-04-24 15:55 1.1M
20260424T12Z_MSC_GDPS_WindV_IsbL-0600_LatLon0.15_PT000H.grib2 2026-04-24 15:55 1.1M
20260424T12Z_MSC_GDPS_WindV_IsbL-0650_LatLon0.15_PT000H.grib2 2026-04-24 15:55 1.2M
20260424T12Z_MSC_GDPS_WindV_IsbL-0700_LatLon0.15_PT000H.grib2 2026-04-24 15:55 1.2M
20260424T12Z_MSC_GDPS_WindV_IsbL-0750_LatLon0.15_PT000H.grib2 2026-04-24 15:55 1.3M
20260424T12Z_MSC_GDPS_WindV_IsbL-0800_LatLon0.15_PT000H.grib2 2026-04-24 15:55 1.4M
20260424T12Z_MSC_GDPS_WindV_IsbL-0850_LatLon0.15_PT000H.grib2 2026-04-24 15:55 1.4M
20260424T12Z_MSC_GDPS_WindV_IsbL-0875_LatLon0.15_PT000H.grib2 2026-04-24 15:55 1.4M
20260424T12Z_MSC_GDPS_WindV_IsbL-0900_LatLon0.15_PT000H.grib2 2026-04-24 15:55 1.4M
20260424T12Z_MSC_GDPS_WindV_IsbL-0925_LatLon0.15_PT000H.grib2 2026-04-24 15:55 1.4M
20260424T12Z_MSC_GDPS_WindV_IsbL-0950_LatLon0.15_PT000H.grib2 2026-04-24 15:55 1.4M
20260424T12Z_MSC_GDPS_WindV_IsbL-0970_LatLon0.15_PT000H.grib2 2026-04-24 15:55 1.4M
20260424T12Z_MSC_GDPS_WindV_IsbL-0985_LatLon0.15_PT000H.grib2 2026-04-24 15:55 1.4M
20260424T12Z_MSC_GDPS_WindV_IsbL-1000_LatLon0.15_PT000H.grib2 2026-04-24 15:55 1.7M
20260424T12Z_MSC_GDPS_WindV_IsbL-1015_LatLon0.15_PT000H.grib2 2026-04-24 15:55 1.7M